Regional Weather Roundup
Issued by NWS

Home | Current Version | Previous Version | Graphics & Text | Print | Product List | Glossary On
Versions: 1 2 3 4 5 6 7 8 9 10 11 12 13 14 15 16 17 18 19 20 21 22 23 24 25 26 27 28 29 30 31 32 33 34 35 36 37 38 39 40 41 42 43 44 45 46 47 48 49 50
000
ASUS43 KOAX 241502
RWRNE

WEATHER ROUNDUP FOR NEBRASKA
NATIONAL WEATHER SERVICE OMAHA NE
1000 AM CDT WED MAY 24 2017

NOTES: SATELLITE DATA IS BEING USED TO AUGMENT CLOUD COVER ABOVE
       12000 FEET.
       "FAIR" INDICATES FEW OR NO CLOUDS BELOW 12,000 FEET WITH NO
       SIGNIFICANT WEATHER AND/OR OBSTRUCTIONS TO VISIBILITY.

  * THESE STATIONS DO NOT REPORT WEATHER SUCH AS RAIN...SNOW OR FOG.

NEZ001>004-019>022-054>056-241600-
NEBRASKA PANHANDLE

CITY           SKY/WX    TMP DP  RH WIND       PRES   REMARKS
SCOTTSBLUFF    SUNNY     55  41  59 E13       29.74F
ALLIANCE       SUNNY     54  39  57 S15       29.76F
CHADRON        SUNNY     58  40  51 S12       29.71F
GORDON         FAIR      54  38  55 S12       29.76F
KIMBALL        SUNNY     60  37  41 SW12      29.78F
SIDNEY         SUNNY     54  40  59 S15       29.80F
$$

NEZ057>060-069>072-079>082-241600-
SOUTHWEST NEBRASKA

CITY           SKY/WX    TMP DP  RH WIND       PRES   REMARKS
NORTH PLATTE   SUNNY     53  40  61 W6        29.83F
IMPERIAL       SUNNY     54  37  52 SE7       29.83F
LEXINGTON      SUNNY     52  43  71 CALM      29.84F
MCCOOK         SUNNY     54  39  57 CALM      29.85F
OGALLALA       SUNNY     55  38  51 S7        29.82F
$$

NEZ005>010-023>029-035>040-094-241600-
NORTH CENTRAL NEBRASKA

CITY           SKY/WX    TMP DP  RH WIND       PRES   REMARKS
VALENTINE      SUNNY     54  36  50 SW6       29.79F
AINSWORTH      SUNNY     51  41  70 CALM      29.81F
BROKEN BOW     PTSUNNY   53  42  66 MISG      29.81F
O`NEILL        MOSUNNY   54  43  66 N3        29.82F
ORD            MOSUNNY   52  41  66 CALM      29.81F
THEDFORD       SUNNY     54  38  56 CALM      29.81F
$$

NEZ041-046>049-061>064-073>077-083>087-241600-
SOUTH CENTRAL NEBRASKA

CITY           SKY/WX    TMP DP  RH WIND       PRES   REMARKS
GRAND ISLAND   SUNNY     55  45  68 N9        29.82F
AURORA         SUNNY     55  44  66 NE9       29.81F
HASTINGS       SUNNY     54  43  66 N8        29.83F
HEBRON         SUNNY     56  47  70 N12       29.81S
HOLDREGE       MOSUNNY   51  40  67 N6        29.84F
KEARNEY *      PTSUNNY   54  39  58 N8        29.84F
$$

NEZ011>018-030>034-042>045-241600-
NORTHEAST NEBRASKA

CITY           SKY/WX    TMP DP  RH WIND       PRES   REMARKS
NORFOLK        MOSUNNY   54  45  71 N10       29.78F
ALBION         MOSUNNY   56  44  65 N6        29.80F
BLAIR          PTSUNNY   55  49  81 N8        29.77S
FREMONT        MOSUNNY   57  47  69 N5        29.79F
TEKAMAH        MOSUNNY   55  49  80 N16       29.78S
WAYNE          CLOUDY    52  51  95 N3        29.80F
$$

NEZ050>053-065>068-078-088>093-241600-
SOUTHEAST NEBRASKA

CITY           SKY/WX    TMP DP  RH WIND       PRES   REMARKS
LINCOLN        MOSUNNY   59  48  67 N10       29.80S
OMAHA EPPLEY   MOSUNNY   57  48  72 N14       29.77S
BEATRICE       MOSUNNY   57  48  70 N13       29.78F
FALLS CITY     MOSUNNY   57  49  74 NW13G22   29.74S
NEBRASKA CITY  MOSUNNY   57  46  66 N13G18    29.76F
PLATTSMOUTH    CLOUDY    56  45  67 N8        29.76F
$$

NEZ044-045-051>053-067-241600-
OMAHA AREA

CITY           SKY/WX    TMP DP  RH WIND       PRES   REMARKS
OMAHA EPPLEY   MOSUNNY   57  48  72 N14       29.77S
BLAIR          PTSUNNY   55  49  81 N8        29.77S
FREMONT        MOSUNNY   57  47  69 N5        29.79F
MILLARD        PTSUNNY   57  49  75 N8        29.77F
OFFUTT AFB     MOSUNNY   56  48  73 NW8       29.76S
PLATTSMOUTH    CLOUDY    56  45  67 N8        29.76F
WAHOO          FAIR      56  48  73 N10       29.79S
$$




USA.gov is the U.S. government's official web portal to all federal, state and local government web resources and services.